[[{"header":{"parameterUnit":"m.s-1","parameterCategory":1,"la1":30.2991,"la2":30.254,"lo1":-89.0895,"lo2":-89.0444,"dy":0.0017,"dx":0.0017,"nx":28,"ny":28,"refTime":"2023-04-26T15:00:00:Z","depth":0,"parameterNumber":2,"parameterNumberName":"U-component_of_WINDS"},"data":[0,0,0,0,0,0,0,0,0,0,0,0,0,0,0,0,0,0,0,0,0,0,0,0,0,0,0,0,0,0,0,0,0,0,0,0,0,0,0,0,0,0,0,0,0,0,0,0,0,0,0,0,0,0,0,0,0,0,-3.9089,-3.9088,0,-3.9066,-3.9065,-3.9065,-3.8991,-3.8989,-3.8988,-3.8986,-3.8963,-3.8964,-3.8965,0,0,0,0,0,0,0,0,0,0,0,0,0,-3.9071,-3.9072,-3.9089,-3.9088,-3.9088,-3.9066,-3.9065,-3.9065,-3.8991,-3.8989,-3.8987,-3.8985,-3.8963,-3.8964,-3.8965,0,0,0,0,0,0,0,0,0,0,0,0,0,-3.9067,-3.9072,-3.9089,-3.9048,-3.9045,-3.9066,-3.9065,-3.9065,-3.8992,-3.8989,-3.8987,-3.8984,-3.8963,-3.8964,-3.8965,-3.9024,0,0,-3.897,-3.897,0,0,0,0,0,0,0,0,-3.9067,-3.9067,-3.9055,-3.9051,-3.9047,-3.9029,-3.9051,-3.9051,-3.8992,-3.9012,-3.8986,-3.8983,-3.8987,-3.8986,-3.8987,-3.9023,-3.9022,-3.897,-3.8971,-3.8971,-3.8972,0,0,0,0,0,0,0,-3.9067,-3.9068,-3.9079,-3.9055,-3.905,-3.9033,-3.9029,-3.9051,-3.9014,-3.901,-3.9004,-3.9003,-3.8984,-3.8986,-3.8986,-3.9021,-3.897,-3.8971,-3.8972,-3.8972,-3.9106,-3.9108,0,0,0,0,0,0,-3.9073,-3.9069,-3.908,-3.9079,-3.9051,-3.9035,-3.9031,-3.9037,-3.9013,-3.9007,-3.9005,-3.8999,-3.8985,-3.8985,-3.8985,-3.9052,-3.8971,-3.8972,-3.8973,-3.9103,-3.9106,-3.9109,0,0,0,0,0,0,-3.9073,-3.9075,-3.9081,-3.9072,-3.9072,-3.9038,-3.9045,-3.9038,-3.9039,-3.9009,-3.9003,-3.9013,-3.8983,-3.8983,-3.9015,-3.9051,-3.8973,-3.8974,-3.91,-3.9104,-3.9108,-3.9187,0,0,0,0,0,0,-3.9073,-3.9075,-3.9096,-3.9073,-3.9073,-3.9111,-3.9047,-3.9039,-3.9042,-3.9035,-3.9015,-3.901,-3.8981,-3.9013,-3.9017,-3.9051,-3.8975,-3.9096,-3.9102,-3.9106,-3.9181,-3.9194,-3.9204,0,0,0,0,0,-3.9073,-3.9119,-3.9097,-3.9099,-3.9098,-3.9113,-3.9112,-3.9078,-3.9045,-3.9066,-3.9048,-3.901,-3.9047,-3.9017,-3.902,-3.9056,-3.9094,-3.91,-3.9106,-3.9176,-3.9191,-3.9204,0,0,0,0,0,0,-3.9146,-3.9115,-3.9091,-3.9131,-3.9125,-3.91,-3.9125,-3.9095,-3.9098,-3.9091,-3.9049,-3.9045,-3.9083,-3.9073,-3.904,-3.9112,-3.9064,-3.9071,-3.9117,-3.9131,-3.9142,-3.9143,-3.8977,0,0,0,0,0,-3.9167,-3.9182,-3.9154,-3.9193,-3.9191,-3.9159,-3.9164,-3.9139,-3.9131,-3.9128,-3.9111,-3.9106,-3.9116,-3.9123,-3.9131,-3.9181,-3.9176,-3.9207,-3.9219,-3.9228,-3.9234,-3.9261,-3.9274,-3.9129,-3.9129,-3.9129,0,0,-3.9211,-3.9196,-3.9207,-3.9207,-3.9199,-3.9216,-3.9157,-3.9177,-3.9189,-3.9131,-3.9159,-3.9148,-3.9139,-3.9181,-3.9198,-3.9173,-3.9274,-3.9236,-3.9244,-3.9244,-3.9269,-3.9282,-3.9295,-3.9133,-3.9132,-3.9132,0,0,-3.9297,-3.9288,-3.9319,-3.9313,-3.9303,-3.9282,-3.929,-3.927,-3.926,-3.9289,-3.9247,-3.9261,-3.928,-3.9275,-3.9275,-3.9366,-3.9332,-3.937,-3.9428,-3.9455,-3.9467,-3.9477,-3.9509,-3.9521,-3.9376,-3.9376,-3.9377,0,-3.9352,-3.9374,-3.9339,-3.9362,-3.9364,-3.9314,-3.9346,-3.9342,-3.9335,-3.9338,-3.9311,-3.9335,-3.9325,-3.9365,-3.9388,-3.939,-3.9398,-3.937,-3.9468,-3.9477,-3.9486,-3.9516,-3.9529,-3.9381,-3.938,-3.938,-3.938,0,-3.9443,-3.946,-3.9486,-3.9481,-3.9487,-3.9514,-3.9484,-3.9494,-3.947,-3.9453,-3.9484,-3.9471,-3.9476,-3.9485,-3.9461,-3.9523,-3.9508,-3.9475,-3.9426,-3.9505,-3.9533,-3.9544,-3.9388,-3.9386,-3.9385,-3.9383,0,0,-3.9571,-3.9549,-3.9559,-3.9557,-3.9544,-3.9557,-3.9584,-3.9589,-3.9599,-3.9597,-3.9618,-3.9637,-3.9608,-3.9608,-3.9584,-3.9608,-3.9681,-3.9572,-3.9571,-3.9592,-3.9749,-3.9773,-3.9786,-3.966,-3.9662,-3.9663,-3.975,0,-3.9653,-3.9696,-3.9667,-3.9715,-3.973,-3.9686,-3.9709,-3.9705,-3.969,-3.9703,-3.9687,-3.9701,-3.9661,-3.9661,-3.9683,-3.9667,-3.9711,-3.9661,-3.9679,-3.968,-3.9681,-3.9801,-3.9825,-3.9907,-3.976,-3.9762,-3.9763,0,-3.9753,-3.9756,-3.9806,-3.9792,-3.9798,-3.9819,-3.9823,-3.9835,-3.983,-3.9818,-3.9821,-3.9792,-3.9818,-3.9773,-3.9809,-3.9775,-3.9782,-3.9776,-3.9778,-3.9777,-3.9725,-3.9802,-3.9932,-3.9944,-3.978,-3.9779,-3.9778,0,-3.9841,-3.9859,-3.9891,-3.9891,-3.9875,-3.9892,-3.9886,-3.9879,-3.9885,-3.9889,-3.9893,-3.99,-3.9904,-3.9911,-3.9886,-3.9854,-3.9926,-3.9877,-3.9917,-3.9918,-3.9932,-3.9931,-4.0064,-3.9939,-3.9939,-3.9939,-3.9939,0,-3.9934,-3.9967,-3.9931,-3.995,-3.9986,-3.9954,-3.999,-3.998,-3.9975,-3.9993,-3.9955,-3.9973,-3.9939,-3.9954,-3.9934,-3.9968,-3.997,-3.9962,-3.9956,-3.9964,-3.9965,-3.9966,-3.9959,-3.9942,-3.9941,-3.9941,-3.994,0,-4.0037,-4.0015,-4.0047,-4.0031,-4.0028,-4.0055,-4.0041,-4.006,-4.0045,-4.0068,-4.0072,-4.0048,-4.0064,-4.004,-4.0053,-4.004,-4.0087,-4.0073,-4.0088,-4.0084,-4.0125,-4.0121,-4.0261,-4.0278,-4.0144,-4.0146,-4.0147,0,-4.0097,-4.0121,-4.0108,-4.0118,-4.0115,-4.013,-4.0137,-4.0108,-4.0116,-4.0114,-4.0133,-4.0146,-4.0155,-4.0183,-4.0167,-4.0178,-4.0164,-4.0212,-4.0165,-4.0173,-4.0163,-4.0162,-4.0164,-4.0221,-4.0223,-4.0224,-4.0225,0,-4.0206,-4.0194,-4.0205,-4.0213,-4.0222,-4.0226,-4.0228,-4.0239,-4.0208,-4.022,-4.0236,-4.0243,-4.0258,-4.0272,-4.0279,-4.0274,-4.0245,-4.0241,-4.0251,-4.0258,-4.0266,-4.0262,-4.0114,-4.0237,-4.0236,-4.0235,-4.0234,-4.0234,-4.0288,-4.0308,-4.0303,-4.0317,-4.0316,-4.0319,-4.0336,-4.0324,-4.0337,-4.0347,-4.0329,-4.0351,-4.0348,-4.0355,-4.0354,-4.0371,-4.0349,-4.0363,-4.0367,-4.037,-4.0376,-4.0265,-4.0372,-4.0372,-4.0371,-4.0371,-4.0371,0,-4.0395,-4.039,-4.0403,-4.0408,-4.042,-4.0393,-4.0394,-4.0406,-4.0425,-4.0425,-4.0435,-4.0455,-4.0469,-4.0456,-4.0468,-4.0484,-4.0472,-4.0488,-4.0486,-4.0486,-4.0395,-4.0385,-4.0499,-4.0499,-4.0499,-4.0499,-4.0499,-4.0499,-4.0451,-4.0483,-4.0472,-4.0505,-4.05,-4.052,-4.0524,-4.0527,-4.0527,-4.0551,-4.0563,-4.0555,-4.055,-4.0562,-4.0575,-4.0571,-4.0577,-4.0598,-4.059,-4.0504,-4.0492,-4.048,-4.047,-4.06,-4.06,-4.0679,-4.0679,-4.068]},{"header":{"parameterUnit":"m.s-1","parameterCategory":1,"la1":30.2991,"la2":30.254,"lo1":-89.0895,"lo2":-89.0444,"dy":0.0017,"dx":0.0017,"nx":28,"ny":28,"refTime":"2023-04-26T15:00:00:Z","depth":0,"parameterNumber":3,"parameterNumberName":"V-component_of_WINDS"},"data":[0,0,0,0,0,0,0,0,0,0,0,0,0,0,0,0,0,0,0,0,0,0,0,0,0,0,0,0,0,0,0,0,0,0,0,0,0,0,0,0,0,0,0,0,0,0,0,0,0,0,0,0,0,0,0,0,0,0,2.6025,2.6025,0,2.6051,2.6051,2.6051,2.6136,2.6138,2.614,2.6142,2.6163,2.6162,2.616,0,0,0,0,0,0,0,0,0,0,0,0,0,2.6046,2.6045,2.6025,2.6025,2.6026,2.6051,2.6051,2.6051,2.6136,2.6138,2.6141,2.6143,2.6163,2.6162,2.616,0,0,0,0,0,0,0,0,0,0,0,0,0,2.605,2.6045,2.6025,2.6071,2.6076,2.605,2.6051,2.6051,2.6136,2.6138,2.6141,2.6144,2.6164,2.6162,2.616,2.6091,0,0,2.6154,2.6154,0,0,0,0,0,0,0,0,2.605,2.605,2.6064,2.6068,2.6073,2.6093,2.6066,2.6064,2.6135,2.6113,2.6142,2.6145,2.6137,2.6138,2.6136,2.6092,2.6093,2.6154,2.6153,2.6152,2.6152,0,0,0,0,0,0,0,2.605,2.6049,2.6035,2.6064,2.6069,2.6089,2.6093,2.6066,2.6108,2.6115,2.6121,2.6123,2.614,2.6137,2.6137,2.6093,2.6154,2.6153,2.6152,2.6151,2.5995,2.5992,0,0,0,0,0,0,2.6043,2.6048,2.6034,2.6036,2.6069,2.6087,2.6091,2.6084,2.6109,2.6115,2.6121,2.6127,2.6139,2.6139,2.6138,2.606,2.6152,2.6151,2.615,2.5998,2.5994,2.5991,0,0,0,0,0,0,2.6044,2.6041,2.6033,2.6044,2.6044,2.6083,2.6074,2.6083,2.608,2.6113,2.6121,2.6111,2.6141,2.6141,2.6103,2.6061,2.615,2.6148,2.6001,2.5997,2.5993,2.5901,0,0,0,0,0,0,2.6044,2.6041,2.6016,2.6043,2.6043,2.5998,2.6072,2.6081,2.6078,2.6086,2.6106,2.6112,2.6144,2.6105,2.6101,2.606,2.6147,2.6005,2.5999,2.5994,2.5908,2.5894,2.5882,0,0,0,0,0,2.6044,2.5988,2.6014,2.6012,2.6013,2.5996,2.5996,2.6035,2.6074,2.6049,2.607,2.6111,2.6067,2.61,2.6096,2.6055,2.6008,2.6001,2.5994,2.5914,2.5897,2.5882,0,0,0,0,0,0,2.5952,2.5992,2.6022,2.5972,2.598,2.601,2.5979,2.6016,2.6012,2.6019,2.6067,2.6071,2.6026,2.6037,2.6073,2.599,2.6044,2.6036,2.5984,2.5969,2.5956,2.5954,2.6145,0,0,0,0,0,2.5927,2.5911,2.5946,2.5899,2.5901,2.5939,2.5933,2.5963,2.5973,2.5976,2.5995,2.6001,2.5989,2.5979,2.5969,2.591,2.5916,2.588,2.5867,2.5856,2.5848,2.5819,2.5803,2.5969,2.5969,2.5969,0,0,2.5873,2.5893,2.5879,2.5881,2.5891,2.5872,2.5942,2.5919,2.5905,2.5972,2.5938,2.5952,2.5962,2.5913,2.5893,2.5921,2.5804,2.5847,2.5838,2.5837,2.581,2.5794,2.578,2.5964,2.5965,2.5965,0,0,2.5766,2.5779,2.5742,2.5751,2.5766,2.5792,2.5783,2.5808,2.582,2.5787,2.5837,2.5821,2.5799,2.5804,2.5804,2.5701,2.5738,2.5696,2.5628,2.5598,2.5585,2.5574,2.5538,2.5524,2.5688,2.5688,2.5688,0,2.5696,2.5672,2.5718,2.5693,2.5692,2.5754,2.5716,2.5722,2.5732,2.5729,2.5761,2.5736,2.5746,2.5701,2.5676,2.5673,2.5664,2.5694,2.5584,2.5573,2.5563,2.5529,2.5515,2.5683,2.5684,2.5684,2.5685,0,2.5587,2.5569,2.5537,2.5548,2.5543,2.5511,2.5551,2.5541,2.5572,2.5594,2.556,2.5576,2.5571,2.5562,2.5591,2.552,2.5538,2.5576,2.5632,2.5541,2.551,2.5497,2.5675,2.5677,2.5679,2.568,0,0,2.5421,2.5459,2.5446,2.5453,2.5474,2.5461,2.5432,2.5429,2.542,2.5425,2.5401,2.5382,2.5418,2.5418,2.5448,2.5422,2.534,2.5464,2.5465,2.544,2.5263,2.5234,2.5218,2.5365,2.5363,2.5361,2.5263,0,2.532,2.5275,2.5316,2.5262,2.5246,2.5306,2.5281,2.529,2.5311,2.5299,2.5321,2.5307,2.5355,2.5356,2.5333,2.5354,2.5305,2.5362,2.5343,2.5342,2.5339,2.5202,2.5171,2.5077,2.5251,2.5249,2.5247,0,2.5195,2.5197,2.5142,2.5169,2.5164,2.5141,2.5143,2.5131,2.5144,2.516,2.5161,2.5198,2.5171,2.5226,2.5189,2.5227,2.5222,2.5231,2.5229,2.5228,2.5289,2.5198,2.5048,2.5034,2.5228,2.5229,2.5231,0,2.5081,2.5069,2.5036,2.5039,2.5069,2.5051,2.5062,2.5078,2.5074,2.5075,2.5073,2.507,2.5068,2.5064,2.5099,2.5136,2.5058,2.5116,2.507,2.5069,2.505,2.5051,2.4898,2.5047,2.5047,2.5047,2.5048,0,2.4963,2.4927,2.4985,2.4964,2.4926,2.4973,2.4933,2.495,2.4964,2.4947,2.4997,2.4979,2.5027,2.5015,2.5042,2.5007,2.5006,2.5018,2.5025,2.5013,2.5012,2.501,2.5018,2.5044,2.5044,2.5045,2.5046,0,2.4829,2.4866,2.4833,2.4865,2.4872,2.4842,2.4869,2.485,2.4875,2.4852,2.485,2.4887,2.4875,2.491,2.4903,2.4921,2.4871,2.4889,2.4867,2.4873,2.4826,2.483,2.4666,2.4647,2.4808,2.4806,2.4805,0,2.4751,2.4726,2.4755,2.4749,2.4758,2.4746,2.4743,2.4788,2.4783,2.4796,2.4776,2.4768,2.4765,2.4742,2.4767,2.4762,2.4781,2.4724,2.478,2.4769,2.478,2.4781,2.4779,2.4712,2.471,2.4708,2.4707,0,2.461,2.463,2.4625,2.4627,2.4622,2.4625,2.4631,2.4622,2.4671,2.4662,2.4651,2.4649,2.4642,2.4634,2.4635,2.4645,2.4683,2.4689,2.4679,2.4666,2.4654,2.466,2.4836,2.4693,2.4694,2.4695,2.4696,2.4696,2.4502,2.4483,2.4501,2.4494,2.4504,2.4509,2.4493,2.4517,2.4509,2.4509,2.4536,2.452,2.4533,2.4539,2.4545,2.4532,2.4558,2.4543,2.4539,2.4534,2.4526,2.4657,2.4533,2.4533,2.4533,2.4534,2.4534,0,2.4364,2.438,2.4373,2.4381,2.4375,2.4414,2.4423,2.4415,2.4401,2.4411,2.4408,2.4395,2.4388,2.4414,2.441,2.4394,2.4412,2.4392,2.4393,2.4395,2.4503,2.4513,2.4378,2.4378,2.4378,2.4378,2.4378,2.4378,2.4292,2.4261,2.4283,2.4258,2.4273,2.4259,2.4261,2.4266,2.4275,2.4259,2.4254,2.4272,2.4288,2.4286,2.4281,2.4289,2.4284,2.4258,2.4272,2.4372,2.4387,2.4402,2.4411,2.4257,2.4257,2.4165,2.4164,2.4163]}]]